Location: Acton
(51.4942°N, 0.2232°W)
Time: 22:04:24
(UTC+00:00)

ATLAS CENTAUR R/B - Pass Details

Date: 18 September 2020
Orbit: 479 x 667 km, 64.7° (Epoch: 12 October)

Event Time Altitude Azimuth Distance (km) Brightness Sun altitude
Rises 21:07:19 0° 304° (NW) 2,594 6.1 -26.4°
Reaches altitude 10° 21:11:02 10° 341° (NNW) 1,683 4.6 -26.8°
Maximum altitude 21:12:09 11° 359° (N) 1,610 4.2 -26.9°
Drops below altitude 10° 21:13:16 10° 17° (NNE) 1,672 4.1 -27.0°
Enters shadow 21:13:42 - 23° (NNE) 1,730 4.1 -27.1°
